CW9927 Weather Reports


time (UTC)temp
C
wind
direction
speed
KPH
gust
KPH
rain 1hr
cm
rain 24hr
cm
rain mn
cm
humidity
%
barometer
mb
20260508203117 23 0.0 0.0 0.00 0.00 0.00 50 1017.7
20260508202116 23 0.0 0.0 0.00 0.00 0.00 52 1017.7
20260508201120 23 0.0 0.0 0.00 0.00 0.00 52 1017.9
20260508200116 22 0.0 0.0 0.00 0.00 0.00 51 1017.9
20260508195116 22 0.0 0.0 0.00 0.00 0.00 51 1018.1
20260508194117 22 0.0 0.0 0.00 0.00 0.00 53 1018.2
20260508193137 21 0.0 0.0 0.00 0.00 0.00 54 1018.3
20260508192116 21 0.0 0.0 0.00 0.00 0.00 54 1018.4
20260508191116 20 0.0 0.0 0.00 0.00 0.00 57 1018.6
20260508185117 20 0.0 0.0 0.00 0.00 0.00 60 1018.8
20260508184118 18 0.0 0.0 0.00 0.00 0.00 62 1018.8
20260508183117 18 0.0 0.0 0.00 0.00 0.00 65 1019.1
20260508182117 18 0.0 0.0 0.00 0.00 0.00 64 1019.2
20260508181138 18 0.0 0.0 0.00 0.00 0.00 65 1019.2
20260508180117 17 0.0 0.0 0.00 0.00 0.00 65 1019.3
20260508175118 17 0.0 0.0 0.00 0.00 0.00 68 1019.3
20260508174117 16 0.0 0.0 0.00 0.00 0.00 69 1019.3
20260508173117 16 0.0 0.0 0.00 0.00 0.00 70 1019.5
20260508172117 16 0.0 0.0 0.00 0.00 0.00 72 1019.5
20260508171117 15 0.0 0.0 0.00 0.00 0.00 74 1019.5
20260508170115 15 0.0 0.0 0.00 0.00 0.00 75 1019.6
20260508165117 14 0.0 0.0 0.00 0.00 0.00 76 1019.6
20260508164118 14 0.0 0.0 0.00 0.00 0.00 78 1019.7
20260508163117 13 0.0 0.0 0.00 0.00 0.00 81 1019.8
20260508162118 13 0.0 0.0 0.00 0.00 0.00 81 1019.9
20260508161118 12 0.0 0.0 0.00 0.00 0.00 81 1019.9
20260508160118 12 0.0 0.0 0.00 0.00 0.00 82 1019.9
20260508155118 12 0.0 0.0 0.00 0.00 0.00 83 1019.9
20260508154118 12 0.0 0.0 0.00 0.00 0.00 84 1019.9
20260508153118 12 0.0 0.0 0.00 0.00 0.00 84 1020.0
20260508152118 12 0.0 0.0 0.00 0.00 0.00 85 1019.9
20260508151117 12 0.0 0.0 0.00 0.00 0.00 85 1019.8
20260508150138 12 0.0 0.0 0.00 0.00 0.00 86 1020.0
20260508145117 12 0.0 0.0 0.00 0.00 0.00 86 1020.0
20260508144117 11 0.0 0.0 0.00 0.00 0.00 86 1019.9
20260508143117 11 0.0 0.0 0.00 0.00 0.00 87 1019.9
20260508142117 11 0.0 0.0 0.00 0.00 0.00 87 1019.7
20260508141117 11 0.0 0.0 0.00 0.00 0.00 87 1019.5
20260508140300 11 0.0 0.0 0.00 0.00 0.00 88 1019.5
20260508135117 11 0.0 0.0 0.00 0.00 0.00 88 1019.5
20260508134138 11 0.0 0.0 0.00 0.00 0.00 88 1019.5
20260508133117 11 0.0 0.0 0.00 0.00 0.00 88 1019.5
20260508132117 11 0.0 0.0 0.00 0.00 0.00 88 1019.4
20260508131117 11 0.0 0.0 0.00 0.00 0.00 88 1019.4
20260508130254 11 0.0 0.0 0.00 0.00 0.00 88 1019.4
20260508125316 11 0.0 0.0 0.00 0.00 0.00 88 1019.3
20260508124316 11 0.0 0.0 0.00 0.00 0.00 89 1019.1
20260508123316 11 0.0 0.0 0.00 0.00 0.00 89 1019.1
20260508122316 11 0.0 0.0 0.00 0.00 0.00 89 1019.0
20260508121336 11 0.0 0.0 0.00 0.00 0.00 89 1019.1
20260508120317 11 0.0 0.0 0.00 0.00 0.00 89 1019.1
20260508115400 11 0.0 0.0 0.00 0.00 0.00 89 1019.1
20260508114316 11 0.0 0.0 0.00 0.00 0.00 90 1019.0
20260508113316 11 0.0 0.0 0.00 0.00 0.00 90 1019.0
20260508112316 11 0.0 0.0 0.00 0.00 0.00 90 1018.9
20260508111336 11 0.0 0.0 0.00 0.00 0.00 90 1018.9
20260508110316 12 0.0 0.0 0.00 0.00 0.00 90 1018.9
20260508105316 12 0.0 0.0 0.00 0.00 0.00 90 1018.9
20260508104316 12 0.0 0.0 0.00 0.00 0.00 89 1018.9
20260508103316 12 0.0 0.0 0.00 0.00 0.00 90 1018.8
20260508102316 12 0.0 0.0 0.00 0.00 0.00 90 1018.7
20260508101316 12 0.0 0.0 0.00 0.00 0.00 90 1018.8
20260508100316 12 0.0 0.0 0.00 0.00 0.00 90 1018.8
20260508095316 12 0.0 0.0 0.00 0.00 0.00 90 1018.8
20260508094317 12 0.0 0.0 0.00 0.00 0.00 90 1018.8
20260508093316 12 0.0 0.0 0.00 0.00 0.00 90 1018.8
20260508092316 12 0.0 0.0 0.00 0.00 0.00 90 1018.8
20260508091317 12 0.0 0.0 0.00 0.00 0.00 90 1018.8
20260508090316 11 0.0 0.0 0.00 0.00 0.00 90 1018.8
20260508085317 11 0.0 0.0 0.00 0.00 0.00 90 1018.8
20260508084316 11 0.0 0.0 0.00 0.00 0.00 90 1018.8
20260508083316 11 0.0 0.0 0.00 0.00 0.00 89 1018.8
20260508082316 11 0.0 0.0 0.00 0.00 0.00 89 1018.8
20260508081316 10 0.0 0.0 0.00 0.00 0.00 89 1018.8
20260508080316 10 0.0 0.0 0.00 0.00 0.00 89 1018.8
20260508075316 10 0.0 0.0 0.00 0.00 0.00 87 1018.7
20260508074316 10 0.0 0.0 0.00 0.00 0.00 87 1018.6
20260508073316 10 0.0 0.0 0.00 0.00 0.00 86 1018.6
20260508072316 10 0.0 0.0 0.00 0.00 0.00 87 1018.5
20260508071316 10 0.0 0.0 0.00 0.00 0.00 87 1018.4
20260508070408 11 0.0 0.0 0.00 0.00 0.00 86 1018.3
20260508070211 11 0.0 0.0 0.00 0.00 0.00 86 1018.3
20260508065116 11 0.0 0.0 0.00 0.00 0.00 86 1018.3
20260508064116 11 0.0 0.0 0.00 0.00 0.00 86 1018.2
20260508063138 11 0.0 0.0 0.00 0.00 0.00 86 1018.3
20260508062116 11 0.0 0.0 0.00 0.00 0.00 86 1018.3
20260508061116 11 0.0 0.0 0.00 0.00 0.00 85 1018.2
20260508060136 11 0.0 0.0 0.00 0.00 0.00 85 1018.2
20260508055116 11 0.0 0.0 0.00 0.00 0.00 85 1018.4
20260508054156 11 0.0 0.0 0.00 0.00 0.00 85 1018.4
20260508053118 12 0.0 0.0 0.00 0.00 0.00 85 1018.3
20260508052116 12 0.0 0.0 0.00 0.00 0.00 85 1018.2
20260508051117 12 0.0 0.0 0.00 0.00 0.00 84 1018.1
20260508050147 12 0.0 0.0 0.00 0.00 0.00 84 1018.2
20260508045116 12 0.0 0.0 0.00 0.00 0.00 83 1018.0
20260508044116 12 0.0 0.0 0.00 0.00 0.00 83 1017.9
20260508043116 12 0.0 0.0 0.00 0.00 0.00 82 1017.8
20260508042137 13 0.0 0.0 0.00 0.00 0.00 82 1017.9
20260508041116 13 0.0 0.0 0.00 0.00 0.00 81 1017.7
20260508040117 13 0.0 0.0 0.00 0.00 0.00 80 1017.6
20260508035117 13 0.0 0.0 0.00 0.00 0.00 80 1017.5
20260508034116 13 0.0 0.0 0.00 0.00 0.00 80 1017.3
20260508033117 14 0.0 0.0 0.00 0.00 0.00 78 1017.3
20260508032116 14 0.0 0.0 0.00 0.00 0.00 77 1017.2
20260508031116 15 0.0 0.0 0.00 0.00 0.00 75 1017.2
20260508030116 15 0.0 0.0 0.00 0.00 0.00 74 1017.1
20260508025117 16 0.0 0.0 0.00 0.00 0.00 73 1016.9
20260508024136 16 0.0 0.0 0.00 0.00 0.00 70 1016.8
20260508023137 17 0.0 0.0 0.00 0.00 0.00 68 1016.8
20260508022116 18 0.0 0.0 0.00 0.00 0.00 68 1016.7
20260508021116 18 0.0 0.0 0.00 0.00 0.00 68 1016.6
20260508020116 19 0.0 0.0 0.00 0.00 0.00 67 1016.6
20260508015116 20 0.0 0.0 0.00 0.00 0.00 65 1016.4
20260508014116 21 0.0 0.0 0.00 0.00 0.00 63 1016.4
20260508013116 21 0.0 0.0 0.00 0.00 0.00 64 1016.4
20260508012116 21 0.0 0.0 0.00 0.00 0.00 64 1016.3
20260508011117 22 0.0 0.0 0.00 0.00 0.00 63 1016.4
20260508005118 23 0.0 0.0 0.00 0.00 0.00 60 1016.2
20260508004117 23 0.0 0.0 0.00 0.00 0.00 60 1016.2
20260508003118 23 0.0 0.0 0.00 0.00 0.00 61 1016.0
20260508002117 23 0.0 0.0 0.00 0.00 0.00 61 1016.0
20260508001118 24 0.0 1.6 0.00 0.00 0.00 60 1016.0
20260508000118 24 0.0 4.8 0.00 0.00 0.00 60 1015.9
20260507235138 25 0.0 0.0 0.00 0.00 0.00 59 1015.9
20260507234117 25 0.0 0.0 0.00 0.00 0.00 59 1015.7
20260507233118 26 0.0 0.0 0.00 0.00 0.00 59 1015.7
20260507232158 26 0.0 0.0 0.00 0.00 0.00 58 1015.8
20260507231118 26 0.0 0.0 0.00 0.00 0.00 58 1015.8
20260507230118 26 0.0 0.0 0.00 0.00 0.00 56 1015.9
20260507225118 26 0.0 0.0 0.00 0.00 0.00 56 1015.9
20260507224117 26 0.0 0.0 0.00 0.00 0.00 55 1016.0
20260507223138 27 0.0 0.0 0.00 0.00 0.00 54 1016.0
20260507222138 26 0.0 0.0 0.00 0.00 0.00 56 1016.1
20260507221117 26 0.0 0.0 0.00 0.00 0.00 56 1016.2
20260507220117 27 0.0 0.0 0.00 0.00 0.00 56 1016.3
20260507215117 27 0.0 0.0 0.00 0.00 0.00 54 1016.5
20260507214118 27 0.0 0.0 0.00 0.00 0.00 52 1016.5
20260507213117 27 0.0 0.0 0.00 0.00 0.00 53 1016.5
20260507212117 27 0.0 0.0 0.00 0.00 0.00 53 1016.7
20260507211117 27 0.0 0.0 0.00 0.00 0.00 53 1016.9
20260507210117 26 0.0 0.0 0.00 0.00 0.00 55 1016.9
20260507205118 26 0.0 0.0 0.00 0.00 0.00 55 1017.1
20260507204117 25 0.0 0.0 0.00 0.00 0.00 56 1017.1